Back to catalog

THOR ABLESTAR DEB

AliveLEO
NORAD 467·DEBRIS·🇺🇸 United States

Launched Jun 29, 1961 from Cape Canaveral Space Force Station

Loading…

Next Passes (next 24 hours)

TLE

FreshSource: Space-Track

Epoch: Sep 14, 2026, 08:16 UTC

1 00467U 61015FD  26257.34460833  .00001240  00000-0  14914-2 0  9991
2 00467  66.5565 239.9364 0248852 264.1909  93.0735 13.57689035293040

Track THOR ABLESTAR DEB in real time with AllMySat

Download on the App Store